Powrót do katalogu

STARLINK-33668

AktywnyŁącznośćVLEO
NORAD 63402·PAYLOAD·🇺🇸 United States

Wystrzelony Mar 31, 2025 z Cape Canaveral Space Force Station

Loading…

Następne Przeloty (najbliższe 24 godziny)

TLE

ŚwieżeSource: CelesTrak SupGP

Epoka: Sep 15, 2026, 02:33 UTC

1 63402C 25065D   26258.10673611  .00065444  00000+0  23710-2 0  2586
2 63402  43.0013 117.4629 0001732 278.2868 223.3092 15.27537662    18

Śledź STARLINK-33668 w czasie rzeczywistym z AllMySat

Download on the App Store